Regional Weather Roundup
Issued by NWS

Home | Current Version | Previous Version | Text Only | Print | Product List | Glossary Off
Versions: 1 2 3 4 5 6 7 8 9 10 11 12 13 14 15 16 17 18 19 20 21 22 23 24 25 26 27 28 29 30 31 32 33 34 35 36 37 38 39 40 41 42 43 44 45 46 47 48 49 50

000
ASUS43 KTOP 191659
RWRKS

WEATHER ROUNDUP FOR KANSAS
NATIONAL WEATHER SERVICE GOODLAND KS
1200 PM CDT TUE AUG 19 2014

NOTE:  "FAIR" INDICATES FEW OR NO CLOUDS BELOW 12,000 FEET WITH NO
SIGNIFICANT WEATHER AND/OR OBSTRUCTIONS TO VISIBILITY.

KSZ001>006-013>018-027>032-041>047-191800-
NORTHWEST KANSAS

CITY           SKY/WX    TMP DP  RH WIND       PRES   REMARKS
GOODLAND       PTSUNNY   79  56  45 CALM      29.92F
HAYS           MOSUNNY   90  63  40 SE8       29.88R
HILL CITY      MOSUNNY   83  63  50 VRB6      29.87F
RUSSELL        MOSUNNY   89  59  36 SE7G21    29.86S
$$

KSZ061>065-074>080-084>089-191800-
SOUTHWEST KANSAS

CITY           SKY/WX    TMP DP  RH WIND       PRES   REMARKS
DODGE CITY     MOSUNNY   86  61  42 S15G25    29.89F
ELKHART          N/A     87  61  41 S8          N/A
GARDEN CITY    PTSUNNY   86  64  47 SW16      29.88F
GREAT BEND     MOSUNNY   88  61  40 SE13G18   29.88R
LIBERAL        MOSUNNY   88  63  42 S14G21    29.92F
PRATT          SUNNY     90  59  35 SW9G16    29.90S
$$

KSZ066>073-081>083-090>101-191800-
SOUTHEAST KANSAS

CITY           SKY/WX    TMP DP  RH WIND       PRES   REMARKS
CHANUTE        SUNNY     90  66  45 SW12      29.87S
COFFEYVILLE    SUNNY     90  69  50 W12       29.87R
HUTCHINSON     MOSUNNY   89  59  36 E9        29.89S
MEDICINE LODGE   N/A     90  65  43 VRB7      29.86S
NEWTON         SUNNY     88  55  33 SW3       29.92F
PARSONS        SUNNY     90  67  46 SW9       29.89S
WICHITA INTL   MOSUNNY   87  66  49 S8        29.88S
WICHITA JABRA  SUNNY     88  65  46 SW9       29.88S
WINFIELD       SUNNY     90  68  48 SW12      29.89F
$$

KSZ007>012-019>026-033>040-048>060-102>105-191800-
NORTHEAST KANSAS

CITY           SKY/WX    TMP DP  RH WIND       PRES   REMARKS
CONCORDIA      SUNNY     84  72  67 NE6       29.85F
EMPORIA        SUNNY     87  63  44 CALM      29.87S
LAWRENCE       SUNNY     88  71  57 W5        29.84S
MANHATTAN      SUNNY     87  70  56 E7        29.83F
OLATHE IND     SUNNY     86  71  60 SW6       29.86R
OLATHE EXE     SUNNY     85  71  63 NW6       29.85S
SALINA         SUNNY     87  67  51 S9        29.87S
TOPEKA BILLARD SUNNY     89  72  56 N3        29.83F HX  96
TOPEKA FORBES  SUNNY     88  68  51 CALM      29.84S
$$



USA.gov is the U.S. government's official web portal to all federal, state and local government web resources and services.